sat.trackr.live / text

‹ back to catalog

STARLINK-36160

NORAD 66936 · 2025-286M

PAYLOAD ACTIVE UNKNOWN

§ Identity

Operator
Country
US
Launch date
2025-12-07
Launch site
AFWTR
Launch vehicle
Mass (kg)
RCS (m²)

Purposes: comms

External: N2YO · Heavens-Above · Gunter

§ Orbital elements

Epoch: 2026-05-24T23:31:36.018336Z

Period
93.85 min
Inclination
53.1597°
Eccentricity
0.0000453
Mean motion
15.34412172 rev/d
Perigee alt
462.4 km
Apogee alt
463.0 km
Semi-major
6,840.8 km
B*
7.8766e-4
RAAN
3.6330°
Arg perigee
124.2752°
Mean anomaly
235.8293°
Rev number
2,709

§ Raw data

STARLINK-361601 66936U 25286M   26144.98027799  .00026340  00000+0  78766-3 0  99922 66936  53.1597   3.6330 0000453 124.2752 235.8293 15.34412172 27092

JSON: /api/v1/satellites/66936 · /tle

For live sub-satellite position, see the globe view (requires WebGL).

§ Visibility from observer

Set your observer location to see the next 7 days of passes ≥ 10°. The values pass through the URL so the page stays shareable.

No JS? Fill the form by hand. The geolocation button needs JavaScript.